Weather History for Whiteman AFB, MO

Change the Weather History Date:

Sunday, July 21, 2013

  Actual Average Record
Temperature  
Mean Temperature 78 °F -  
Max Temperature 87 °F 87 °F 100 °F (1998)
Min Temperature 69 °F 68 °F 62 °F (2000)
Cooling Degree Days 12    
Growing Degree Days 28 (Base 50)    
Moisture  
Dew Point 72 °F    
Average Humidity 87    
Maximum Humidity 100    
Minimum Humidity 56    
Precipitation  
Precipitation 0.00 in - - ()
Sea Level Pressure  
Sea Level Pressure 29.88 in    
Wind  
Wind Speed 8 mph (South)    
Max Wind Speed 14 mph    
Max Gust Speed 18 mph    
Visibility 10 miles    
Events Rain    
Averages and records for this station are not official NWS values.
T = Trace of Precipitation, MM = Missing Value Source: NWS Daily Summary

Daily Weather History Graph

Daily Weather History Graph

Search for Another Location

Airport:

Trip Planner

Search our weather history database for the weather conditions in past years. The results will help you decide how hot, cold, wet, or windy it might be!

Date:

Astronomy

Jul. 21, 2013 Rise Set
Actual Time 6:06 AM CDT 8:34 PM CDT
Civil Twilight 5:35 AM CDT 9:04 PM CDT
Nautical Twilight 4:58 AM CDT 9:42 PM CDT
Astronomical Twilight 4:16 AM CDT 10:24 PM CDT
Moon 7:33 PM CDT (7/21) 4:52 AM CDT (7/21)
Length of Visible Light 15h 28m
Length of Day
14h 27m
Waxing Gibbous, 98% of the Moon is Illuminated
Jul 21
Waxing Gibbous
Jul 22
Full
Jul 29
Last Quarter
Aug 6
New
Aug 14
First Quarter

Hourly Weather History & Observations

Time (CDT) Temp. Heat Index Dew Point Humidity Pressure Visibility Wind Dir Wind Speed Gust Speed Precip Events Conditions
12:58 AM 74.5 °F - 70.9 °F 88% 29.93 in 10.0 mi SW 11.5 mph - N/A   Mostly Cloudy
1:58 AM 73.6 °F - 70.0 °F 88% 29.91 in 10.0 mi SW 6.9 mph - N/A   Mostly Cloudy
2:26 AM 73.4 °F - 71.6 °F 94% 29.92 in 10.0 mi SW 4.6 mph - N/A Rain Light Rain
2:37 AM 73.4 °F - 71.6 °F 94% 29.91 in 10.0 mi SW 8.1 mph - N/A   Scattered Clouds
2:58 AM 73.4 °F - 71.6 °F 94% 29.89 in 10.0 mi WSW 11.5 mph - N/A   Scattered Clouds
3:55 AM 71.6 °F - 71.6 °F 100% 29.90 in 10.0 mi SSE 3.5 mph - N/A   Mostly Cloudy
4:58 AM 70.7 °F - 70.3 °F 99% 29.87 in 10.0 mi SSW 5.8 mph - N/A   Mostly Cloudy
5:58 AM 69.8 °F - 69.4 °F 99% 29.88 in 10.0 mi SSW 8.1 mph - N/A   Mostly Cloudy
6:58 AM 70.3 °F - 70.3 °F 100% 29.89 in 10.0 mi SSW 9.2 mph - N/A   Partly Cloudy
7:58 AM 72.3 °F - 72.0 °F 99% 29.91 in 10.0 mi SSW 10.4 mph - N/A   Scattered Clouds
8:58 AM 72.3 °F - 72.3 °F 100% 29.92 in 10.0 mi SSW 4.6 mph - N/A   Mostly Cloudy
9:58 AM 74.8 °F - 72.1 °F 91% 29.93 in 10.0 mi SSW 8.1 mph - N/A   Partly Cloudy
10:58 AM 76.6 °F - 71.4 °F 84% 29.93 in 10.0 mi Variable 4.6 mph - N/A   Clear
11:58 AM 78.3 °F - 71.1 °F 78% 29.92 in 10.0 mi South 4.6 mph - N/A   Scattered Clouds
12:58 PM 81.9 °F 86.6 °F 72.0 °F 72% 29.90 in 10.0 mi South 9.2 mph - N/A   Scattered Clouds
1:58 PM 85.1 °F 89.8 °F 70.3 °F 61% 29.87 in 10.0 mi South 12.7 mph 18.4 mph N/A   Scattered Clouds
2:58 PM 84.7 °F 88.8 °F 69.3 °F 60% 29.86 in 10.0 mi South 13.8 mph - N/A   Clear
3:58 PM 85.6 °F 89.7 °F 69.4 °F 58% 29.84 in 10.0 mi West 8.1 mph - N/A   Clear
4:58 PM 86.7 °F 91.4 °F 69.8 °F 57% 29.83 in 10.0 mi West 6.9 mph - N/A   Clear
5:58 PM 85.1 °F 89.1 °F 69.1 °F 59% 29.82 in 10.0 mi West 4.6 mph - N/A   Clear
6:58 PM 85.8 °F 89.4 °F 68.7 °F 56% 29.82 in 10.0 mi Variable 1.2 mph - N/A   Clear
7:58 PM 83.1 °F 89.5 °F 73.8 °F 73% 29.82 in 10.0 mi East 8.1 mph - N/A   Scattered Clouds
8:58 PM 76.1 °F - 73.8 °F 92% 29.84 in 10.0 mi East 5.8 mph - N/A   Scattered Clouds
9:20 PM 75.2 °F - 75.2 °F 100% 29.85 in 10.0 mi East 5.8 mph - N/A   Light Drizzle
9:29 PM 75.2 °F - 75.2 °F 100% 29.86 in 10.0 mi ESE 5.8 mph - N/A   Partly Cloudy
9:33 PM 75.2 °F - 75.2 °F 100% 29.86 in 10.0 mi ESE 4.6 mph - N/A   Light Drizzle
9:42 PM 75.2 °F - 75.2 °F 100% 29.86 in 10.0 mi ESE 5.8 mph - N/A   Scattered Clouds
9:58 PM 74.3 °F - 74.3 °F 100% 29.86 in 9.0 mi ESE 4.6 mph - N/A   Partly Cloudy
10:58 PM 72.9 °F - 72.9 °F 100% 29.86 in 10.0 mi ESE 5.8 mph - N/A   Clear
11:58 PM 71.8 °F - 71.8 °F 100% 29.85 in 10.0 mi SSE 4.6 mph - N/A   Clear